Flag for Canada Weather past 2 weeks in Waterloo, Ontario, Canada

Now
59 °F

Clear.


Feels Like: 59 °F
Forecast: 56 / 80 °F
Wind: 5 mph from Southwest

Location: Waterloo Well

Current Time: Aug 2, 2015 at 4:22:48 AM

Latest Report: Aug 2, 2015 at 4:00 AM


Visibility: 9 mi

Pressure: 29.83 "Hg

Humidity: 88%

Dew point: 55 °F

Location of WaterlooLocation

Historic Weather in Waterloo — Graph

°F

Waterloo temperature yesterday

Maximum temperature yesterday: 79 °F (at 3:00 PM)
Minimum temperature yesterday: 57 °F (at 4:00 AM)
Average temperature yesterday: 68 °F

Past Weeks' High & Low Weather Summary

 TemperatureHumidityPressure
High90 °F (Jul 29, 3:00 PM)100% (Jul 18, 3:56 AM)30.06 "Hg (Jul 18, 3:56 AM)
Low46 °F (Jul 24, 5:00 AM)31% (Jul 29, 3:00 PM)29.64 "Hg (Jul 21, 2:00 AM)
Average71 °F70%29.89 "Hg
* Reported Jul 18 3:00 AM — Aug 2 3:00 AM, Waterloo, Weather by CustomWeather, © 2015

Note: Actual official high and low records may vary slightly from our data, if they occured in-between our weather recording intervals... More about our weather records

Advertising

Waterloo weather history for previous 24 hours

 ConditionsComfort  
Time TempWeatherWind HumidityBarometerVisibility
3:00 AM
Sun, Aug 2
59 °FPassing clouds.2 mph88%29.84 "Hg9 mi
2:00 AM61 °FPassing clouds.2 mph83%29.85 "Hg9 mi
1:00 AM59 °FClear.No wind82%29.86 "Hg9 mi
12:00 AM61 °FClear.No wind83%29.86 "Hg9 mi
11:00 PM
Sat, Aug 1
63 °FClear.3 mph77%29.86 "Hg9 mi
10:00 PM66 °FClear.5 mph68%29.86 "Hg9 mi
9:00 PM70 °FOvercast.6 mph60%29.85 "Hg9 mi
8:00 PM72 °FPassing clouds.12 mph53%29.84 "Hg9 mi
7:00 PM75 °FPassing clouds.13 mph47%29.83 "Hg9 mi
6:00 PM75 °FScattered clouds.16 mph47%29.83 "Hg9 mi
5:00 PM79 °FScattered clouds.18 mph39%29.83 "Hg9 mi
4:00 PM79 °FScattered clouds.17 mph39%29.84 "Hg9 mi
3:00 PM79 °FScattered clouds.17 mph42%29.84 "Hg9 mi
2:00 PM77 °FBroken clouds.10 mph47%29.85 "Hg9 mi
1:00 PM77 °FScattered clouds.15 mph44%29.87 "Hg9 mi
12:00 PM72 °FPartly sunny.9 mph53%29.88 "Hg9 mi
11:00 AM73 °FSunny.10 mph53%29.88 "Hg9 mi
10:00 AM70 °FSunny.10 mph64%29.88 "Hg9 mi
9:00 AM66 °FSunny.7 mph73%29.88 "Hg9 mi
8:00 AM63 °FSunny.7 mph83%29.87 "Hg9 mi
7:00 AM59 °FClear.7 mph94%29.86 "Hg9 mi
6:00 AM57 °FClear.5 mph94%29.85 "Hg9 mi
5:00 AM57 °FClear.3 mph94%29.83 "Hg9 mi
4:00 AM57 °FClear.5 mph94%29.83 "Hg9 mi
Weather by CustomWeather, © 2015

See weather overviewHow to use our weather pages